Regional Weather Roundup
Issued by NWS

Home | Current Version | Previous Version | Text Only | Print | Product List | Glossary Off
Versions: 1 2 3 4 5 6 7 8 9 10 11 12 13 14 15 16 17 18 19 20 21 22 23 24 25 26 27 28 29 30 31 32 33 34 35 36 37 38 39 40 41 42 43 44 45 46 47 48 49 50

000
ASUS43 KBIS 242320
RWRND

NORTH DAKOTA REGIONAL WEATHER ROUNDUP
NATIONAL WEATHER SERVICE BISMARCK ND
500 PM CST WED DEC 24 2014

NOTE: "FAIR" INDICATES FEW OR NO CLOUDS BELOW 12,000 FEET WITH NO
SIGNIFICANT WEATHER AND/OR OBSTRUCTIONS TO VISIBILITY.


NDZ001>003-009>011-017-250000-
NORTHWEST NORTH DAKOTA

CITY           SKY/WX    TMP DP  RH WIND       PRES   REMARKS
WILLISTON      PTCLDY    32  27  81 NW9       29.47S
MINOT          PTCLDY    33  28  81 W12       29.42F
MINOT AFB      PTCLDY    31  30  99 W9        29.42S
$$

NDZ018>021-031>035-040>046-250000-
SOUTHWEST NORTH DAKOTA

CITY           SKY/WX    TMP DP  RH WIND       PRES   REMARKS
BISMARCK       CLOUDY    33  26  75 CALM      29.47F
DICKINSON      CLOUDY    35  30  82 NW9       29.45R
GARRISON         N/A     34  31  88 W6        29.43F
HETTINGER ARPT CLOUDY    35  28  75 W6        29.47F
$$

NDZ004>008-012>016-024-026-027-054-250000-
NORTHEAST NORTH DAKOTA

CITY           SKY/WX    TMP DP  RH WIND       PRES   REMARKS
GRAND FORKS    CLOUDY    27  26  96 S12       29.52F WCI  17
GRND FRKS AFB  CLOUDY    28  28 100 S13G18    29.51F WCI  17
DEVILS LAKE    CLOUDY    30  25  80 SW12      29.42F
$$

NDZ022-023-025-028>030-036>039-047>053-250000-
SOUTHEAST NORTH DAKOTA

CITY           SKY/WX    TMP DP  RH WIND       PRES   REMARKS
FARGO          CLOUDY    28  25  88 S12       29.56F WCI  18
JAMESTOWN      CLOUDY    29  25  85 S13       29.47F WCI  19
$$



USA.gov is the U.S. government's official web portal to all federal, state and local government web resources and services.